Regional Weather Roundup
Issued by NWS Bismarck, ND

Home | Current Version | Previous Version | Text Only | Print | Product List | Glossary On
Versions: 1 2 3 4 5 6 7 8 9 10 11 12 13 14 15 16 17 18 19 20 21 22 23 24 25 26 27 28 29 30 31 32 33 34 35 36 37 38 39 40 41 42 43 44 45 46 47 48 49 50
000
ASUS43 KBIS 281802
RWRBIS

NWR BROADCAST TEXT
NATIONAL WEATHER SERVICE BISMARCK ND
100 PM CDT THU MAY 28 2015

NOTE: "FAIR" INDICATES FEW OR NO CLOUDS BELOW 12,000 FEET WITH NO
SIGNIFICANT WEATHER AND/OR OBSTRUCTIONS TO VISIBILITY.


CITY           SKY/WX    TMP DP  RH WIND       PRES   REMARKS
WILLISTON      MOSUNNY   71  56  58 N10       29.89F
MINOT          CLOUDY    69  56  62 NW10      29.85S
MINOT AFB      CLOUDY    70  68  92 NW12      29.84S
BISMARCK       PTSUNNY   74  59  59 MISG      29.87S
DICKINSON      PTSUNNY   70  53  54 W12G21    29.88F
GARRISON         N/A     70  58  65 NW10      29.86R
HETTINGER ARPT MOSUNNY   71  54  54 NW8       29.92S
JAMESTOWN      MOSUNNY   76  62  62 SW15      29.84F
CARRINGTON     MOCLDY    72  66  83 SW7       29.86R
OAKES            N/A     77  64  65 S24G30    29.85F
STANLEY        CLOUDY    64  63  94 VRB5G13   29.90F
$$

CITY           SKY/WX    TMP DP  RH WIND       PRES   REMARKS
GRAND FORKS    PTSUNNY   73  61  65 S16G22    29.84F
GRAND FORKS AF PTSUNNY   74  62  66 S15       29.85F
DEVILS LAKE    PTSUNNY   72  59  64 SW7       29.83F
FARGO          PTSUNNY   79  63  57 S23G35    29.84F
CAVALIER       CLOUDY    66  61  82 S6        29.86S
GRAFTON        MOCLDY    72  63  73 SW12      29.86F
LANGDON        CLOUDY    68  59  73 S12       29.86F
ROLLA          CLOUDY    64  59  82 W5        29.87S
WALHALLA         N/A     66  66 100 MISG      29.86F
$$

CITY           SKY/WX    TMP DP  RH WIND       PRES   REMARKS
ABERDEEN       SUNNY     80  60  50 S25G35    29.86F
MOBRIDGE       PTSUNNY   73  61  65 S6        29.86R
BUFFALO          N/A     70  52  52 NW20      29.87S
RAPID CITY     MOSUNNY   72  53  51 NE13      29.95S
GLASGOW        PTSUNNY   70  53  54 N12       29.95R
SIDNEY         PTSUNNY   72  54  53 NW8       29.89S
WOLF POINT     PTSUNNY   72  55  55 N9        29.92S
GLENDIVE       PTSUNNY   72  54  53 W13G18    29.92S
MILES CITY     PTSUNNY   72  52  49 NW15      29.95S
BAKER          CLOUDY    71  51  49 NW15      29.94F
$$

CITY           SKY/WX    TMP DP  RH WIND       PRES   REMARKS
BILLINGS       PTSUNNY   65  47  52 SW7       30.02F
GREAT FALLS    CLOUDY    54  51  90 W14       30.11S
$$



USA.gov is the U.S. government's official web portal to all federal, state and local government web resources and services.